Regional Weather Roundup
Issued by NWS

Home | Current Version | Previous Version | Graphics & Text | Print | Product List | Glossary On
Versions: 1 2 3 4 5 6 7 8 9 10 11 12 13 14 15 16 17 18 19 20 21 22 23 24 25 26 27 28 29 30 31 32 33 34 35 36 37 38 39 40 41 42 43 44 45 46 47 48 49 50
000
ASUS43 KDTX 242101
RWRMI
MICHIGAN HOURLY REGIONAL WEATHER ROUNDUP
NATIONAL WEATHER SERVICE DETROIT/PONTIAC MI
400 PM EST SAT JAN 24 2015

NOTE: "FAIR" INDICATES FEW OR NO CLOUDS BELOW 12,000 FEET WITH NO
SIGNIFICANT WEATHER AND/OR OBSTRUCTION TO VISIBILITY.

MIZ047>049-052>055-059>063-066>070-074>076-081>083-242200-
SOUTHEAST LOWER MICHIGAN

CITY           SKY/WX    TMP DP  RH WIND       PRES   REMARKS
ADRIAN         CLOUDY    36  30  79 NW10      29.60R WCI  28
ALMA           CLOUDY    37  32  80 W8        29.56R WCI  31
ANN ARBOR      CLOUDY    36  30  79 W10       29.57R WCI  28
BAD AXE        CLOUDY    35  32  88 W8        29.50R WCI  28
CARO           CLOUDY    36  31  82 W8        29.51R WCI  30
DETROIT CITY   CLOUDY    36  28  73 W10       29.56R HAZE    WCI  28
DETROIT        CLOUDY    34  29  82 SW9       29.57S HAZE    WCI  27
FLINT          CLOUDY    38  30  73 W13       29.55R WCI  30
GROSSE ILE     CLOUDY    34  28  80 SW7       29.56S HAZE    WCI  28
HILLSDALE      CLOUDY    36  31  83 W12       29.58R WCI  28
HOWELL         CLOUDY    36  31  82 W10       29.55R WCI  28

CITY           SKY/WX    TMP DP  RH WIND       PRES   REMARKS
JACKSON        CLOUDY    37  29  72 W8        29.57R WCI  31
LAMBERTVILLE   CLOUDY    34  30  86 W5        29.60R HAZE    WCI  30
LANSING        CLOUDY    37  30  75 W12       29.57R WCI  29
LAPEER         CLOUDY    36  30  80 W9        29.53R WCI  29
MASON          CLOUDY    36  29  76 W8G18     29.57R WCI  30
MONROE         CLOUDY    34  28  80 SW12      29.57R FOG     WCI  25
MT. CLEMENS    CLOUDY    35  30  81 W8        29.52R HAZE    WCI  28
PONTIAC        CLOUDY    35  30  82 W12         N/A  WCI  27
PORT HOPE        N/A     36  29  75 VRB6      29.47R WCI  31
PORT HURON     CLOUDY    32  30  93 SW3       29.53R FOG
TRI CITIES     CLOUDY    38  30  73 W13       29.53S WCI  30
TROY           CLOUDY    37  30  75 W8        29.56R HAZE    WCI  31
SAGINAW HB     CLOUDY    36  32  87 SW8       29.53S WCI  29
$$
MIZ043>046-050>051-056>058-064>065-071>073-077>080-242200-
SOUTHWEST LOWER MICHIGAN

CITY           SKY/WX    TMP DP  RH WIND       PRES   REMARKS
BATTLE CREEK   CLOUDY    39  30  70 W12       29.60R WCI  32
BENTON HARBOR  CLOUDY    37  32  82 SW8       29.63S WCI  31
BIG RAPIDS     CLOUDY    37  33  84 W8        29.53S WCI  31
COLDWATER      CLOUDY    36  30  78 W9        29.60R WCI  29
FREMONT        CLOUDY    37  32  82 W8        29.57S WCI  30
HOLLAND        CLOUDY    38  32  79 W8        29.61R WCI  32
GRAND RAPIDS   CLOUDY    37  31  78 W14       29.59R WCI  28
IONIA          CLOUDY    38  31  76 W12       29.56R WCI  31
KALAMAZOO      CLOUDY    38  30  73 W12       29.61R WCI  30
LUDINGTON      CLOUDY    38  34  85 W5        29.58R WCI  34
MARSHALL       CLOUDY    37  30  77 W8        29.58R WCI  30
MOUNT PLEASANT CLOUDY    37  32  82 SW7       29.53S WCI  31
MUSKEGON       LGT RAIN  37  33  85 W7        29.60R WCI  32
SOUTH HAVEN    CLOUDY    38  33  82 W8        29.62S WCI  32
$$
MIZ016>042-242200-
NORTHERN LOWER MICHIGAN

CITY           SKY/WX    TMP DP  RH WIND       PRES   REMARKS
ALPENA         CLOUDY    35  28  75 NW10      29.48R WCI  27
BEAVER ISLAND  CLOUDY    30  26  85 CALM      29.56R
BELLAIRE       CLOUDY    35  31  87 NW5       29.54R WCI  31
CADILLAC       CLOUDY    35  29  80 NW14      29.51R WCI  26
CHARLEVOIX     CLOUDY    32  28  86 N9        29.57R WCI  24
FRANKFORT      CLOUDY    37  32  82 NW7       29.55S WCI  32
GAYLORD        CLOUDY    32  29  88 NW12G17   29.49R WCI  23
GRAYLING       CLOUDY    34  30  85 W8        29.50R WCI  27
HARBOR SPRINGS CLOUDY    32  25  76 NW9       29.53R WCI  24
HOUGHTON LAKE  CLOUDY    34  31  88 W10       29.50R WCI  26
MANISTEE       CLOUDY    37  32  81 NW7       29.57S WCI  32
OSCODA         CLOUDY    37  30  74 W6        29.47R WCI  33
PELLSTON       PTSUNNY   31  24  75 NW14G24   29.53R WCI  21
ROGERS CITY    CLOUDY    32  29  90 NW12G20   29.50R WCI  23
TRAVERSE CITY  CLOUDY    37  29  72 N9        29.53R WCI  30
$$
MIZ007>008-015-242200-
EASTERN UPPER MICHIGAN

CITY           SKY/WX    TMP DP  RH WIND       PRES   REMARKS
KINROSS        CLOUDY    27  23  86 NW20      29.50R WCI  13
MACKINAC ISLAN CLOUDY    30  25  79 NW13G20   29.52R WCI  20
NEWBERRY       CLOUDY    25  19  80 NW13G20   29.55R WCI  13
S. S. MARIE    CLOUDY    25  17  72 NW17      29.51R WCI  12
MUNISING         N/A     26  18  71 N22       29.62R WCI  12
$$
MIZ004>006-011>014-085-242200-
CENTRAL UPPER MICHIGAN

CITY           SKY/WX    TMP DP  RH WIND       PRES   REMARKS
MANISTIQUE     CLOUDY    28  24  86 N15G25    29.57R WCI  16
ESCANABA       CLOUDY    28  21  74 N10       29.59R WCI  19
MENOMINEE      CLOUDY    39  27  60 N6        29.55R WCI  35
SAWYER-GWINN   CLOUDY    21  19  93 N18       29.59R WCI   6
$$
MIZ001>003-009>011-084-242200-
WESTERN UPPER MICHIGAN

CITY           SKY/WX    TMP DP  RH WIND       PRES   REMARKS
IRON MOUNTAIN  CLOUDY    36  24  62 NW10      29.54R WCI  28
HOUGHTON       FLURRIES  18  11  74 NE15      29.65R WCI   4
COPPER HARBOR    N/A     20  13  74 NE17G24   29.68R WCI   5
IRONWOOD       CLOUDY    28  27  93 NE6       29.57R WCI  22
$$

ABBREVIATIONS USED IN REMARKS
   TC - TEMPERATURE IN CELSIUS
  WCI - WIND CHILL INDEX
   HX - HEAT INDEX
  VSB - VISIBILITY



USA.gov is the U.S. government's official web portal to all federal, state and local government web resources and services.